Regional Weather Roundup
Issued by NWS Newport/Morehead, NC

Current Version | Previous Version | Graphics & Text | Print | Product List | Glossary Off
Versions: 1 2 3 4 5 6 7 8 9 10 11 12 13 14 15 16 17 18 19 20 21 22 23 24 25 26 27 28 29 30 31 32 33 34 35 36 37 38 39 40 41 42 43 44 45 46 47 48 49

000
ASUS42 KMHX 201310
RWRMHX
WEATHER ROUNDUP FOR EASTERN NORTH CAROLINA
NATIONAL WEATHER SERVICE NEWPORT/MOREHEAD CITY NC
900 AM EDT SUN APR 20 2014

NOTE: "FAIR" INDICATES FEW OR NO CLOUDS BELOW 12,000 FEET
WITH NO SIGNIFICANT WEATHER AND/OR OBSTRUCTIONS TO VISIBILITY

NCZ015>017-031-032-045>047-102-103-201400-
NORTH COAST

CITY           SKY/WX    TMP DP  RH WIND       PRES   REMARKS
EDENTON        CLOUDY    55  46  71 NE16G24   30.18S
ELIZABETH CITY CLOUDY    54  45  71 NE25      30.20R
KITTY HAWK     DRIZZLE   51  48  87 N12G20    30.13R
MANTEO         CLOUDY    53  49  86 NE20G26   30.13R

$$

NCZ045>047-081-094-103-104-201400-
CENTRAL COAST

CITY           SKY/WX    TMP DP  RH WIND       PRES   REMARKS
FRISCO         LGT RAIN  54  54 100 NE13G22   30.05S FOG
SWANQUARTER      N/A     55 N/A N/A NE13G29   30.06S

$$

NCZ095-097-098-100-101-201400-
SOUTHERN COAST

CITY           SKY/WX    TMP DP  RH WIND       PRES   REMARKS
BEAUFORT       CLOUDY    56  52  86 N18G31    30.05S
CEDAR ISLAND     N/A     57 N/A N/A VRB26G35  30.09S
JACKSONVILLE   CLOUDY    52  48  86 N17       30.09S
NEWPORT          N/A     54  52  94 N13G21      N/A
PINEY ISLAND   CLOUDY    57  53  86 N22G33    30.06R
WILMINGTON     CLOUDY    55  47  74 N17       30.08S


$$

NCZ011>013-027>030-043-044-078>080-089-090>093-098-201400-
COASTAL PLAIN

CITY           SKY/WX    TMP DP  RH WIND       PRES   REMARKS
AHOSKIE        CLOUDY    53  38  57 N12G17    30.22S
CLINTON        CLOUDY    54  38  55 N13       30.16S
ELIZABETHTOWN  CLOUDY    52  41  65 N3        30.14S
GOLDSBORO      CLOUDY    54  39  58 N14G21    30.16R
GREENVILLE     CLOUDY    54  41  62 NE13G18   30.19R
HAVELOCK       CLOUDY    55  49  80 N18       30.09S
KENANSVILLE    CLOUDY    53  39  59 N10G17    30.16R
KINSTON        CLOUDY    52  41  66 N15       30.17R
NEW BERN       CLOUDY    55  47  74 N12G24    30.12S
RICHLANDS      CLOUDY    52  52 100 N14       30.12S
ROANOKE RAPIDS NOT AVBL
ROCKY MOUNT    PTSUNNY   54  37  52 NE18G25   30.21R
WASHINGTON     CLOUDY    54  46  75 N16       30.15S
WHITEVILLE     CLOUDY    52  40  65 N6        30.12S

$$

AMZ130-135-150-152-154-156-158-170-250-252-270-ANZ085-086-088-633-658-670-201400-
MARINE OBSERVATIONS

STATION/POSITION TIME  TEMP    WIND        PRES    WAVE   SWELL
                       AIR SEA DIR/SP/G            HT/PER HT/PER
                 (UTC) (F)     (DEG/KT/KT) (MB)    (FT/S) (FT/S)
CHESAPEAKE LIGHT 1200   49      40/ 30/ 33 1023.1
BUOY 44014       1300   58 48   50/ 19/ 21 1020.9   10/ 9   8/ 9
DUCK             1300   51 49   20/ 25/ 33 1019.9
2E DUCK          1300      48                N/A     8/ 9   2/11
OREGON INLET     1300   51 51   20/ 17/ 22 1019.2
BUOY 44095       1300      48                N/A    10/ 9   3/11
HATTERAS CG      1300   55 56   20/ 10/ 19 1017.7
DIAMOND BUOY     1300   68 76   70/ 33/ 39 1014.7   16/11  13/11
CAPE LOOKOUT     1200   56      20/ 21/ 26 1016.8
BEAUFORT LAB     1300   55 57   20/ 17/ 23 1016.7
30 SE NEW RIVER  1200   58 64   10/ 27/ 33 1015.7
5 SE WRIGHTSVILL 1200   55 59   10/ 25/ 29 1017.1
FRYING PAN BUOY  1300   60 69   20/ 29/ 35 1014.2   11/ 9
BUOY 41001       NOT AVBL
BUOY 41002       NOT AVBL
BUOY 41004       NOT AVBL

$$



USA.gov is the U.S. government's official web portal to all federal, state and local government web resources and services.